EW7397 Weather Reports


time (UTC)temp
F
wind
direction
speed
knots
gust
knots
rain 1hr
in
rain 24hr
in
rain mn
in
humidity
%
barometer
mb
20260507100005 61 150 0.9 3.5 0.00 0.06 0.04 85 1014.3
20260507095503 61 95 0.9 3.5 0.00 0.06 0.04 84 1014.3
20260507095005 60 94 0.9 3.5 0.00 0.06 0.04 86 1014.2
20260507094504 60 79 0.9 1.7 0.00 0.06 0.04 86 1014.3
20260507094005 60 42 0.9 1.7 0.00 0.06 0.04 88 1014.3
20260507093503 60 21 0.9 1.7 0.00 0.06 0.04 87 1014.3
20260507093005 60 348 0.9 1.7 0.00 0.06 0.04 87 1014.3
20260507092503 59 348 0.9 2.6 0.00 0.06 0.04 88 1014.3
20260507092003 59 348 0.9 2.6 0.00 0.06 0.04 88 1014.3
20260507091505 59 348 0.9 1.7 0.00 0.06 0.04 88 1014.3
20260507091211 59 348 0.0 1.7 0.00 0.06 0.04 89 1014.3
20260507090710 59 347 0.9 1.7 0.00 0.06 0.04 90 1014.3
20260507090213 58 346 0.9 1.7 0.00 0.06 0.04 90 1014.2
20260507085503 58 345 0.0 1.7 0.00 0.06 0.04 90 1014.3
20260507085003 58 344 0.0 0.9 0.00 0.06 0.04 90 1014.2
20260507084503 58 344 0.0 1.7 0.00 0.06 0.04 91 1014.2
20260507084003 58 344 0.0 1.7 0.01 0.06 0.04 91 1014.0
20260507083505 57 343 0.0 0.9 0.01 0.06 0.04 91 1014.1
20260507083004 57 343 0.0 0.9 0.01 0.06 0.04 91 1014.1
20260507082505 57 343 0.0 1.7 0.01 0.06 0.04 91 1014.0
20260507082003 57 343 0.0 1.7 0.01 0.06 0.04 91 1013.9
20260507081503 57 343 0.0 1.7 0.01 0.06 0.04 91 1014.0
20260507081005 57 342 0.0 0.9 0.01 0.06 0.04 91 1014.1
20260507080710 57 342 0.0 0.9 0.01 0.06 0.04 91 1014.2
20260507080004 57 342 0.0 0.9 0.01 0.06 0.04 91 1014.1
20260507075505 57 342 0.0 1.7 0.01 0.06 0.04 91 1014.1
20260507075003 57 344 0.0 1.7 0.01 0.06 0.04 91 1014.1
20260507074712 57 344 0.0 1.7 0.01 0.06 0.04 91 1014.0
20260507074003 57 345 0.9 0.9 0.00 0.06 0.03 91 1013.7
20260507073505 57 345 0.9 1.7 0.00 0.06 0.03 91 1013.8
20260507073211 56 344 0.9 1.7 0.00 0.06 0.03 91 1013.7
20260507072503 56 344 0.0 1.7 0.00 0.06 0.03 91 1013.5
20260507072212 56 344 0.0 1.7 0.00 0.06 0.03 92 1013.7
20260507071504 56 0 0.0 0.0 0.00 0.06 0.03 91 1013.7
20260507071003 56 0 0.0 0.0 0.00 0.06 0.03 91 1013.7
20260507070505 56 343 0.0 0.9 0.00 0.06 0.03 91 1013.7
20260507070009 56 343 0.0 0.9 0.00 0.06 0.03 91 1013.6
20260507065503 56 0 0.0 0.0 0.00 0.06 0.03 91 1013.7
20260507065005 56 343 0.0 0.9 0.00 0.06 0.03 91 1013.6
20260507064503 55 343 0.0 0.9 0.00 0.06 0.03 92 1013.5
20260507064005 55 343 0.0 0.9 0.00 0.06 0.03 91 1013.6
20260507063503 55 343 0.0 0.9 0.00 0.06 0.03 91 1013.5
20260507063005 55 343 0.0 0.9 0.00 0.06 0.03 92 1013.4
20260507062710 55 343 0.0 0.9 0.00 0.06 0.03 92 1013.4
20260507062210 55 343 0.0 1.7 0.00 0.06 0.03 92 1013.3
20260507061505 54 343 0.0 1.7 0.00 0.06 0.03 93 1013.3
20260507061211 54 340 0.0 1.7 0.00 0.06 0.03 93 1013.3
20260507060503 54 328 0.0 1.7 0.00 0.06 0.03 93 1013.2
20260507060005 54 0 0.0 0.0 0.00 0.06 0.03 93 1013.2
20260507055503 54 0 0.0 0.0 0.00 0.06 0.03 93 1013.2
20260507055005 54 0 0.0 0.0 0.00 0.06 0.03 93 1013.2
20260507054503 54 0 0.0 0.0 0.00 0.06 0.03 93 1013.4
20260507053503 53 0 0.0 0.0 0.00 0.06 0.03 93 1013.2
20260507053005 53 0 0.0 0.0 0.00 0.06 0.03 93 1013.2
20260507052710 53 0 0.0 0.0 0.00 0.06 0.03 93 1013.2
20260507052003 53 316 0.0 0.9 0.00 0.06 0.03 93 1013.1
20260507051505 53 316 0.0 0.9 0.00 0.06 0.03 93 1013.2
20260507051003 53 316 0.0 0.9 0.00 0.06 0.03 93 1013.1
20260507050505 52 316 0.0 0.9 0.01 0.06 0.03 93 1013.1
20260507050211 52 316 0.0 0.9 0.01 0.06 0.03 93 1013.1
20260507045503 52 0 0.0 0.0 0.01 0.06 0.03 92 1013.0
20260507045005 52 0 0.0 0.0 0.01 0.06 0.03 92 1012.8
20260507044503 52 316 0.0 0.9 0.01 0.06 0.03 92 1012.7
20260507044005 52 316 0.0 0.9 0.01 0.06 0.03 93 1012.6
20260507043503 52 316 0.0 0.9 0.01 0.06 0.03 93 1012.5
20260507043003 52 316 0.0 1.7 0.01 0.06 0.03 93 1012.5
20260507042505 52 316 0.0 1.7 0.01 0.06 0.03 92 1012.4
20260507042003 52 316 0.0 0.9 0.01 0.06 0.03 92 1012.4
20260507041503 52 316 0.0 1.7 0.01 0.06 0.03 92 1012.4
20260507041003 52 316 0.0 1.7 0.01 0.06 0.03 92 1012.3
20260507040503 52 316 0.0 0.9 0.00 0.05 0.02 92 1012.3
20260507040006 52 0 0.0 0.0 0.00 0.05 0.02 91 1012.3
20260507035711 52 0 0.0 0.0 0.00 0.05 0.02 91 1012.3
20260507035212 52 0 0.0 0.0 0.00 0.05 0.02 91 1012.4
20260507034503 52 0 0.0 0.0 0.00 0.05 0.02 91 1012.4
20260507034005 52 316 0.0 0.9 0.00 0.05 0.02 91 1012.3
20260507033503 52 316 0.0 1.7 0.00 0.05 0.02 92 1012.4
20260507033003 52 316 0.0 1.7 0.00 0.05 0.02 91 1012.3
20260507032505 52 316 0.0 0.9 0.00 0.05 0.02 91 1012.3
20260507032211 52 0 0.0 0.0 0.00 0.05 0.02 91 1012.3
20260507031503 52 316 0.0 1.7 0.00 0.05 0.02 91 1012.2
20260507031005 52 316 0.9 1.7 0.00 0.05 0.02 91 1012.2
20260507030710 52 316 0.9 1.7 0.00 0.05 0.02 91 1012.3
20260507030006 52 316 0.0 1.7 0.00 0.05 0.02 90 1012.2
20260507025503 52 316 0.0 1.7 0.00 0.05 0.02 90 1012.1
20260507025005 52 316 0.0 1.7 0.00 0.05 0.02 90 1011.9
20260507024503 52 316 0.0 1.7 0.00 0.05 0.02 90 1011.9
20260507024003 52 316 0.0 1.7 0.00 0.05 0.02 91 1012.0
20260507023505 52 316 0.0 1.7 0.00 0.05 0.02 91 1012.1
20260507023004 52 0 0.0 0.0 0.00 0.05 0.02 91 1012.0
20260507022503 52 316 0.0 0.9 0.00 0.05 0.02 91 1012.1
20260507022005 52 316 0.0 0.9 0.00 0.05 0.02 90 1012.1
20260507021503 52 316 0.0 0.9 0.00 0.05 0.02 90 1012.1
20260507021005 52 0 0.0 0.0 0.00 0.05 0.02 91 1012.1
20260507020503 52 0 0.0 0.0 0.00 0.05 0.02 91 1012.1
20260507020005 52 316 0.0 0.9 0.00 0.05 0.02 90 1012.1
20260507015503 52 316 0.0 0.9 0.00 0.05 0.02 89 1012.1
20260507015005 53 316 0.0 0.9 0.00 0.05 0.02 89 1012.0
20260507014503 53 316 0.0 0.9 0.00 0.05 0.02 89 1012.1
20260507014003 53 316 0.0 1.7 0.00 0.05 0.02 89 1012.0
20260507013505 53 316 0.0 1.7 0.00 0.05 0.02 89 1012.1
20260507013003 53 316 0.0 1.7 0.00 0.05 0.02 89 1012.0
20260507012503 54 0 0.0 0.0 0.00 0.05 0.02 88 1012.1
20260507012005 54 0 0.0 0.0 0.00 0.05 0.02 88 1012.1
20260507011503 54 314 0.9 2.6 0.00 0.05 0.02 89 1012.0
20260507011005 54 307 0.9 2.6 0.01 0.05 0.02 89 1012.1
20260507010503 54 303 0.0 2.6 0.01 0.05 0.02 89 1012.0
20260507010006 55 303 0.0 1.7 0.02 0.05 0.02 89 1011.9
20260507005503 55 303 0.0 0.9 0.02 0.05 0.02 88 1012.0
20260507005213 55 0 0.0 0.0 0.02 0.05 0.02 88 1012.0
20260507004503 55 303 0.9 1.7 0.02 0.05 0.02 88 1012.2
20260507004210 56 303 0.9 1.7 0.02 0.05 0.02 88 1012.1
20260507003505 56 288 0.9 2.6 0.02 0.05 0.02 89 1012.3
20260507003210 56 238 0.9 2.6 0.02 0.05 0.02 89 1012.2
20260507002503 56 105 0.9 1.7 0.02 0.05 0.02 88 1012.3
20260507002003 56 129 0.0 1.7 0.02 0.05 0.02 88 1012.3
20260507001504 56 132 0.0 1.7 0.02 0.05 0.02 88 1012.3
20260507001005 56 138 0.0 0.9 0.02 0.04 0.02 87 1012.4
20260507000503 57 138 0.0 0.9 0.02 0.04 0.02 88 1012.5
20260507000004 57 138 0.0 1.7 0.01 0.03 0.01 87 1012.6
20260506235505 57 138 0.0 2.6 0.01 0.03 0.01 87 1012.6
20260506235003 57 137 0.9 2.6 0.01 0.03 0.01 87 1012.6
20260506234712 57 136 0.9 2.6 0.01 0.03 0.01 87 1012.7
20260506234003 57 149 0.9 3.5 0.01 0.03 0.01 87 1012.6
20260506233503 57 176 0.0 3.5 0.01 0.03 0.01 86 1012.5
20260506233005 57 217 0.0 2.6 0.00 0.02 0.00 87 1012.6
20260506232503 57 246 0.9 1.7 0.00 0.02 0.00 87 1012.5
20260506232005 57 246 0.9 1.7 0.00 0.02 0.00 87 1012.3
20260506231503 57 250 0.9 2.6 0.00 0.02 0.00 87 1012.5
20260506231005 57 274 0.0 2.6 0.00 0.02 0.00 87 1012.4
20260506230508 57 311 0.0 1.7 0.00 0.02 0.00 88 1012.4
20260506230006 57 312 0.9 2.6 0.00 0.02 0.00 88 1012.3
20260506225503 57 316 0.9 2.6 0.00 0.02 0.00 87 1012.2
20260506225005 57 323 1.7 2.6 0.00 0.02 0.00 88 1012.3
20260506224710 57 314 1.7 3.5 0.00 0.02 0.00 88 1012.2
20260506224003 57 322 0.9 3.5 0.00 0.02 0.00 88 1012.3
20260506223505 57 331 0.9 2.6 0.00 0.02 0.00 88 1012.2
20260506223003 57 331 0.9 2.6 0.00 0.02 0.00 87 1012.1
20260506222505 57 332 0.9 2.6 0.00 0.02 0.00 87 1012.0
20260506222003 57 332 0.9 2.6 0.00 0.02 0.00 88 1012.0
20260506221504 57 332 0.9 2.6 0.00 0.02 0.00 88 1011.9
20260506221005 57 332 0.9 2.6 0.00 0.02 0.00 87 1011.9
20260506220503 57 332 0.9 2.6 0.00 0.02 0.00 87 1011.9
20260506220100 57 332 0.9 2.6 0.00 0.02 0.00 88 1011.9
20260506215503 57 332 0.9 1.7 0.00 0.02 0.02 87 1011.7
20260506215006 57 332 0.9 1.7 0.00 0.02 0.02 88 1011.6
20260506214710 57 332 0.0 1.7 0.00 0.02 0.02 87 1011.6
20260506214005 57 333 0.0 1.7 0.00 0.02 0.02 88 1011.6
20260506213503 57 333 0.0 1.7 0.00 0.02 0.02 87 1011.8
20260506213210 57 333 0.9 1.7 0.00 0.02 0.02 88 1011.8
20260506212505 57 322 0.9 2.6 0.00 0.02 0.02 88 1011.8
20260506212004 56 322 0.9 4.3 0.00 0.02 0.02 88 1011.6
20260506211505 56 319 0.9 4.3 0.00 0.02 0.02 88 1011.6
20260506211003 56 314 0.0 1.7 0.00 0.02 0.02 88 1011.8
20260506210505 56 314 0.0 0.9 0.00 0.02 0.02 86 1011.6
20260506210004 56 314 0.0 1.7 0.00 0.02 0.02 86 1011.5
20260506205712 56 314 0.0 1.7 0.00 0.02 0.02 86 1011.5
20260506205003 57 314 0.0 2.6 0.00 0.02 0.02 86 1011.4
20260506204503 57 314 0.0 2.6 0.00 0.02 0.02 86 1011.4
20260506204005 57 314 0.0 1.7 0.00 0.02 0.02 86 1011.2
20260506203503 57 314 0.9 1.7 0.00 0.02 0.02 85 1011.1
20260506203211 57 314 0.9 1.7 0.00 0.02 0.02 86 1011.2
20260506202505 57 314 0.0 2.6 0.00 0.02 0.02 86 1011.3
20260506202003 57 315 0.0 2.6 0.00 0.02 0.02 86 1011.3
20260506201710 57 315 0.0 1.7 0.00 0.02 0.02 85 1011.3
20260506201005 57 315 0.0 1.7 0.00 0.02 0.02 86 1011.3
20260506200503 57 315 0.0 1.7 0.00 0.02 0.02 85 1011.2
20260506200213 57 315 0.0 1.7 0.00 0.02 0.02 85 1011.3
20260506195503 57 315 0.0 1.7 0.00 0.02 0.02 85 1011.3
20260506195003 57 0 0.0 0.0 0.00 0.02 0.02 85 1011.2
20260506194505 57 315 0.0 0.9 0.00 0.02 0.02 84 1011.1
20260506194003 58 315 0.0 0.9 0.00 0.02 0.02 84 1011.2
20260506193503 58 315 0.0 2.6 0.00 0.02 0.02 84 1011.2
20260506193005 58 315 0.9 2.6 0.00 0.02 0.02 83 1011.3
20260506192710 58 315 0.0 1.7 0.00 0.02 0.02 83 1011.2
20260506192003 58 315 0.0 1.7 0.00 0.02 0.02 83 1011.3
20260506191505 58 315 0.0 1.7 0.00 0.02 0.02 82 1011.0
20260506191210 58 0 0.0 0.0 0.00 0.02 0.02 82 1010.8
20260506190712 59 315 0.0 0.9 0.00 0.02 0.02 81 1010.9
20260506190005 59 315 0.0 0.9 0.00 0.02 0.02 81 1010.9
20260506185505 59 315 0.9 1.7 0.00 0.02 0.02 81 1010.8
20260506185003 59 315 0.9 2.6 0.00 0.02 0.02 81 1010.6
20260506184503 60 315 0.9 2.6 0.00 0.02 0.02 81 1010.6
20260506184005 60 321 0.9 3.5 0.00 0.02 0.02 81 1010.7
20260506183503 60 326 0.0 3.5 0.00 0.02 0.02 81 1010.6
20260506183004 60 342 0.0 2.6 0.00 0.02 0.02 80 1010.5
20260506182503 61 342 0.0 2.6 0.00 0.02 0.02 80 1010.5
20260506182210 61 342 0.9 1.7 0.00 0.02 0.02 80 1010.4
20260506181505 61 342 0.9 2.6 0.00 0.02 0.02 80 1010.3
20260506181003 62 342 0.9 2.6 0.00 0.02 0.02 80 1010.3
20260506180503 62 342 0.9 2.6 0.00 0.02 0.02 79 1010.3
20260506180006 62 342 1.7 2.6 0.00 0.02 0.02 79 1010.3
20260506175503 62 335 1.7 3.5 0.00 0.02 0.02 78 1010.3
20260506175003 63 303 0.9 3.5 0.00 0.02 0.02 77 1010.4
20260506174712 63 276 0.9 4.3 0.00 0.02 0.02 77 1010.3
20260506174003 64 273 1.7 4.3 0.00 0.02 0.02 76 1010.3
20260506173505 64 281 1.7 6.1 0.00 0.02 0.02 75 1010.2
20260506173003 64 262 0.9 6.1 0.00 0.02 0.02 74 1010.3
20260506172505 64 250 0.9 2.6 0.00 0.02 0.02 74 1010.1
20260506172003 64 243 1.7 3.5 0.00 0.02 0.02 73 1010.2
20260506171505 65 248 1.7 4.3 0.00 0.02 0.02 73 1010.2
20260506171003 65 256 0.9 4.3 0.00 0.02 0.02 73 1010.2
20260506170503 65 241 0.9 4.3 0.00 0.02 0.02 74 1010.2
20260506170005 65 244 1.7 3.5 0.00 0.02 0.02 74 1010.3
20260506165710 65 238 1.7 7.0 0.00 0.02 0.02 73 1010.1
20260506165003 65 250 0.9 7.0 0.00 0.02 0.02 74 1010.2
20260506164505 65 280 0.9 4.3 0.00 0.02 0.02 74 1010.3
20260506164003 65 273 1.7 4.3 0.00 0.02 0.02 74 1010.3
20260506163503 65 307 2.6 6.1 0.00 0.02 0.02 75 1010.3
20260506163005 65 255 2.6 7.8 0.00 0.02 0.02 74 1010.3
20260506162503 65 246 1.7 7.8 0.00 0.02 0.02 76 1010.4
20260506162005 64 267 0.9 7.0 0.00 0.02 0.02 76 1010.3
20260506161711 64 293 0.9 3.5 0.00 0.02 0.02 79 1010.3
20260506161003 64 328 0.9 1.7 0.00 0.02 0.02 82 1010.4
20260506160505 64 322 0.9 2.6 0.00 0.02 0.02 83 1010.3
20260506160004 64 319 1.7 2.6 0.00 0.02 0.02 83 1010.3
20260506155503 64 315 1.7 3.5 0.00 0.02 0.02 82 1010.5
20260506155005 64 315 0.9 3.5 0.00 0.02 0.02 82 1010.5
20260506154503 64 315 0.0 2.6 0.00 0.02 0.02 82 1010.5
20260506154003 64 315 0.0 1.7 0.00 0.02 0.02 81 1010.7
20260506153503 64 315 0.0 1.7 0.00 0.02 0.02 81 1010.6
20260506153210 64 315 0.9 1.7 0.00 0.02 0.02 81 1010.6
20260506152505 64 318 0.9 2.6 0.00 0.02 0.02 80 1010.6
20260506152003 64 319 0.9 2.6 0.00 0.02 0.02 80 1010.5
20260506151712 64 321 0.9 2.6 0.00 0.02 0.02 79 1010.6
20260506151003 64 323 0.9 2.6 0.00 0.02 0.02 80 1010.6
20260506150503 64 324 0.9 2.6 0.00 0.02 0.02 79 1010.6
20260506150006 64 324 0.9 1.7 0.00 0.02 0.02 80 1010.5
20260506145503 64 308 0.9 3.5 0.00 0.02 0.02 80 1010.5
20260506145003 64 288 0.9 3.5 0.00 0.02 0.02 80 1010.6
20260506144505 64 260 0.0 1.7 0.00 0.02 0.02 80 1010.6
20260506144003 64 255 0.0 1.7 0.00 0.02 0.02 79 1010.5
20260506143505 64 255 0.0 0.9 0.00 0.02 0.02 79 1010.6
20260506143003 64 252 0.9 1.7 0.00 0.02 0.02 79 1010.6
20260506142505 64 251 0.9 1.7 0.00 0.02 0.02 79 1010.7
20260506142210 64 251 0.9 1.7 0.00 0.02 0.02 79 1010.7
20260506141503 64 263 1.7 5.2 0.00 0.02 0.02 78 1010.8
20260506141212 64 271 1.7 5.2 0.00 0.02 0.02 78 1010.7
20260506140503 64 282 0.9 3.5 0.00 0.02 0.02 77 1010.9
20260506140005 64 277 0.9 2.6 0.00 0.02 0.02 78 1010.8
20260506135712 63 274 0.9 2.6 0.00 0.02 0.02 80 1011.0
20260506135210 63 273 0.9 2.6 0.00 0.02 0.02 81 1010.8
20260506134503 63 273 0.9 2.6 0.00 0.02 0.02 80 1010.9
20260506134211 63 271 0.9 2.6 0.00 0.02 0.02 80 1010.9
20260506133505 63 266 0.9 2.6 0.00 0.02 0.02 80 1011.0
20260506133210 63 269 0.9 2.6 0.00 0.02 0.02 80 1011.1
20260506132505 63 282 0.9 2.6 0.00 0.02 0.02 80 1011.1
20260506132003 63 284 0.0 1.7 0.00 0.02 0.02 80 1011.2
20260506131503 63 284 0.0 1.7 0.00 0.02 0.02 79 1011.3
20260506131212 63 284 0.0 0.9 0.00 0.02 0.02 78 1011.3
20260506130503 63 281 0.0 1.7 0.00 0.02 0.02 77 1011.4
20260506130005 63 280 0.0 1.7 0.00 0.02 0.02 77 1011.4
20260506125505 63 274 0.0 0.9 0.00 0.02 0.02 77 1011.5
20260506125003 63 274 0.0 0.9 0.00 0.02 0.02 79 1011.6
20260506124505 63 274 0.9 1.7 0.00 0.02 0.02 80 1011.5
20260506124003 63 274 0.9 2.6 0.00 0.02 0.02 78 1011.7
20260506123503 63 274 0.9 2.6 0.00 0.02 0.02 79 1011.8
20260506123005 63 274 0.9 2.6 0.00 0.02 0.02 78 1011.7
20260506122503 63 264 0.9 2.6 0.00 0.02 0.02 77 1011.7
20260506122003 62 248 0.9 3.5 0.00 0.02 0.02 77 1011.8
20260506121505 62 199 0.9 3.5 0.00 0.02 0.02 79 1011.7
20260506121003 62 203 0.9 2.6 0.00 0.02 0.02 80 1011.8
20260506120503 62 284 0.9 2.6 0.00 0.02 0.02 81 1011.8
20260506120005 62 275 0.9 2.6 0.00 0.02 0.02 80 1011.8
20260506115712 62 270 1.7 2.6 0.00 0.02 0.02 80 1011.8
20260506115210 62 269 1.7 3.5 0.00 0.02 0.02 79 1011.9
20260506114505 62 258 1.7 5.2 0.00 0.02 0.02 80 1012.1
20260506114003 62 258 1.7 3.5 0.00 0.02 0.02 80 1012.1
20260506113505 62 270 0.9 3.5 0.00 0.02 0.02 80 1012.0
20260506113003 62 282 0.9 3.5 0.00 0.02 0.02 81 1012.2
20260506112503 62 335 0.9 2.6 0.02 0.02 0.02 82 1012.3
20260506112005 61 309 0.9 2.6 0.02 0.02 0.02 82 1012.3
20260506111503 61 259 1.7 2.6 0.02 0.02 0.02 83 1012.3
20260506111211 62 257 1.7 2.6 0.02 0.02 0.02 81 1012.4
20260506110710 62 267 2.6 2.6 0.02 0.02 0.02 82 1012.4
20260506110211 62 269 2.6 6.1 0.02 0.02 0.02 80 1012.3
20260506105505 62 274 2.6 7.0 0.02 0.02 0.02 79 1012.5
20260506105004 62 278 1.7 7.0 0.02 0.02 0.02 79 1012.6
20260506104712 63 285 1.7 6.1 0.02 0.02 0.02 79 1012.6
20260506104210 63 308 1.7 3.5 0.02 0.02 0.02 80 1012.6
20260506103712 63 297 1.7 3.5 0.02 0.02 0.02 79 1012.5
20260506103003 63 295 1.7 3.5 0.02 0.02 0.02 78 1012.7
20260506102505 64 289 1.7 4.3 0.01 0.01 0.02 77 1012.7
20260506102003 64 262 1.7 4.3 0.00 0.00 0.00 76 1012.8
20260506101503 64 261 2.6 6.1 0.00 0.00 0.00 75 1012.9
20260506101005 64 273 3.5 7.0 0.00 0.00 0.00 74 1012.7
20260506100503 64 268 4.3 7.8 0.00 0.00 0.00 73 1012.7